Wind_Speed
27 26 26 26 25 25 25 24 23 21 19 17 17 18 21 23 23 23 24 24 24 23 22 21 20 19 19 19 18 18 19 19 19 19 18 17 16 15 15 15 14 13 12 11 10 11 11 11 12 12 11 11 11 11 12 12 12 12 11 11 10 9 9
28 26 25 25 24 23 24 25 26 24 22 20 19 19 20 22 24 24 25 26 26 25 24 23 22 22 21 21 20 20 20 20 19 19 18 17 16 16 15 14 14 13 12 11 11 12 12 12 12 12 12 12 12 12 12 12 12 12 12 11 10 10 9
28 26 24 24 23 22 24 26 25 24 23 21 19 18 18 20 23 25 26 27 27 27 26 25 24 23 23 23 22 21 21 20 19 19 18 18 17 17 16 15 14 13 12 12 13 12 12 12 12 13 13 13 13 13 13 13 13 12 12 11 10 10 10
28 26 26 24 24 23 25 25 24 23 23 22 20 18 17 19 22 24 27 28 29 28 28 27 26 25 25 24 24 24 23 22 21 20 19 19 19 18 17 15 14 14 13 13 12 12 12 12 12 13 13 14 14 14 14 13 13 12 12 11 11 10 10
27 26 25 25 25 27 28 26 24 23 23 22 21 20 19 19 20 23 25 28 30 30 30 30 28 27 26 25 25 25 25 24 23 22 21 21 20 18 17 16 15 15 14 13 12 11 12 12 12 12 13 14 15 15 14 14 13 12 11 11 11 11 10
26 24 24 24 25 28 30 28 27 27 25 24 23 23 22 21 19 20 23 26 29 31 32 31 29 28 27 26 26 26 26 25 24 23 22 21 20 19 18 18 17 16 15 13 12 12 12 12 12 12 13 14 15 15 15 14 13 12 12 11 11 10 11
24 23 22 22 23 26 27 27 27 29 28 26 25 24 23 22 20 20 22 24 27 30 31 31 31 29 28 27 27 27 26 26 25 25 24 22 21 20 19 18 17 17 16 14 13 12 12 12 11 11 12 13 14 15 14 14 13 12 12 11 10 10 11
24 23 22 22 23 25 27 27 28 29 30 29 27 26 24 23 21 20 20 21 25 28 30 31 32 31 31 29 28 27 27 27 27 26 25 24 22 21 20 19 18 18 17 16 15 14 14 13 12 11 12 12 13 14 14 14 14 13 13 11 10 10 10
25 24 24 24 24 26 28 29 29 29 31 31 30 29 27 25 23 21 20 21 23 25 28 30 32 33 33 32 30 29 29 28 28 27 26 25 23 23 22 21 20 19 18 18 17 16 15 14 13 12 12 12 13 14 14 15 15 14 13 12 11 10 9
27 26 26 26 26 26 27 29 30 30 30 31 31 31 30 27 26 25 23 22 22 24 28 31 32 34 34 34 33 32 31 30 29 28 26 25 25 24 24 23 22 21 21 20 19 18 17 16 15 14 14 14 14 14 15 16 16 15 14 12 11 10 9
30 28 27 27 28 28 28 28 29 30 31 31 32 32 31 29 28 28 26 25 24 26 29 31 33 34 35 35 36 35 33 32 31 29 27 26 26 26 26 26 25 24 23 22 21 20 19 18 17 16 16 16 16 16 17 17 17 16 14 13 12 10 10
34 31 29 29 30 31 30 28 29 30 31 31 32 32 31 29 29 29 29 28 28 28 30 32 34 35 36 37 37 37 36 34 33 31 29 28 28 28 28 28 27 26 25 24 23 22 21 19 19 18 18 18 18 18 19 18 18 17 15 14 12 11 10
39 36 33 31 31 33 32 30 29 29 29 30 31 30 29 30 30 30 30 30 30 31 32 33 36 37 38 38 38 38 38 37 35 34 32 31 31 30 30 29 28 28 27 26 25 23 22 21 20 20 20 20 20 20 20 20 19 17 16 14 13 12 12
44 41 39 36 34 34 34 32 31 29 28 28 29 30 30 31 31 31 30 30 31 32 32 33 35 37 39 40 40 40 39 39 38 37 36 35 34 33 32 31 30 29 28 27 26 24 23 22 22 22 22 22 21 22 21 21 20 18 17 16 15 14 14
46 45 45 42 38 36 36 35 33 31 29 28 28 30 32 33 33 32 32 32 32 32 32 32 33 36 38 40 40 40 41 41 41 40 39 38 36 35 34 32 31 30 29 28 27 25 24 24 24 24 24 23 23 23 23 22 21 20 19 18 17 17 16
46 46 47 48 45 41 39 38 36 33 32 31 30 30 32 34 35 34 33 34 34 34 33 32 32 33 36 38 40 41 42 43 43 42 42 40 39 38 36 35 33 32 30 29 28 27 26 25 25 25 25 25 25 25 24 23 23 23 22 21 20 20 19
46 46 47 50 50 47 44 42 40 37 35 35 34 33 32 33 34 35 35 36 37 36 35 34 32 32 33 35 38 41 42 43 44 44 43 43 42 40 39 38 36 34 32 31 30 28 27 26 26 26 26 26 26 26 25 25 25 26 25 24 23 22 21
47 47 47 50 52 52 50 48 45 43 40 39 39 38 37 35 35 35 36 38 39 39 38 36 34 32 32 33 36 40 42 43 44 44 44 44 43 43 42 41 39 37 34 33 31 30 29 28 27 27 27 27 26 26 26 27 28 28 28 27 26 25 24
48 48 48 49 51 53 54 53 50 47 45 43 42 41 41 40 39 37 37 38 41 41 40 38 37 35 34 34 36 38 41 42 44 44 45 45 44 44 44 43 41 39 37 35 34 33 31 29 28 28 27 27 26 26 26 28 29 30 30 30 29 28 27
49 49 49 49 50 52 54 55 54 52 50 48 45 44 44 44 42 41 39 39 41 43 43 41 40 38 37 37 37 38 40 42 43 44 45 45 45 45 45 44 43 41 39 37 36 34 32 30 29 28 28 27 26 26 26 28 30 31 31 32 32 31 30
50 50 50 50 50 52 54 55 56 56 55 53 50 47 46 46 45 44 42 40 41 43 44 44 43 41 40 39 39 40 41 42 43 44 45 46 46 46 46 45 43 42 41 39 37 35 33 32 30 29 28 28 27 27 26 27 30 31 32 33 33 33 33
51 51 51 51 51 52 53 54 55 56 57 56 54 51 49 48 47 47 46 44 43 43 45 46 46 44 43 42 41 41 41 42 44 45 46 46 47 46 46 45 43 42 41 40 39 37 35 34 32 31 30 29 29 28 27 28 30 31 32 33 34 34 34
52 52 52 52 52 52 53 53 53 53 54 55 55 54 53 51 50 50 48 46 45 45 46 47 48 47 46 45 44 43 42 42 43 44 45 46 46 45 45 44 43 42 41 40 39 38 37 37 35 34 33 32 31 29 29 30 32 32 33 33 34 33 33
53 54 54 54 54 54 53 53 53 52 52 53 54 54 54 54 53 53 51 49 48 47 47 48 50 51 49 48 46 45 44 43 43 44 44 44 44 43 43 42 41 41 40 40 39 38 38 38 37 36 35 33 32 31 31 32 34 34 34 34 34 33 32
54 55 57 57 57 56 55 55 54 53 53 53 54 55 55 56 56 55 55 53 51 50 51 52 54 55 54 52 50 48 46 45 44 43 43 42 42 42 41 40 40 39 39 39 38 38 38 38 37 37 36 34 33 32 32 33 35 36 36 36 36 34 33
56 57 59 61 60 59 58 57 56 56 55 54 55 57 57 57 58 58 58 57 55 55 56 56 56 56 54 52 50 48 46 45 44 42 41 41 40 40 40 39 39 39 38 38 37 37 37 37 37 37 37 36 34 33 32 33 35 37 38 38 38 36 34
58 58 61 63 63 62 61 60 59 58 57 56 57 59 60 60 60 61 60 59 59 59 59 58 56 55 53 52 51 48 45 44 43 41 40 40 40 39 38 38 37 37 37 37 36 36 36 37 37 37 36 35 34 32 31 33 35 37 39 40 40 39 37
58 60 62 65 66 65 64 63 61 60 59 58 58 60 62 62 62 63 63 62 62 63 62 59 57 56 55 53 53 51 48 47 46 44 42 42 41 39 38 37 36 36 35 35 35 35 35 36 35 34 33 32 31 29 28 30 33 36 38 39 40 40 38
57 60 62 65 68 68 67 67 65 63 61 61 60 61 62 63 64 64 64 64 64 65 64 61 59 59 57 55 54 53 52 51 49 46 45 43 42 41 39 38 37 35 34 35 35 34 34 33 32 30 30 29 27 25 25 26 29 33 35 37 38 38 37
57 58 61 65 69 71 71 70 69 67 65 64 63 63 63 64 65 65 64 64 64 64 63 62 62 61 59 57 54 54 55 53 51 48 47 45 44 43 41 40 38 37 36 35 35 34 33 33 32 30 28 28 26 25 25 26 28 30 32 33 34 34 34
62 60 61 63 67 72 74 73 72 71 70 67 66 65 65 65 66 67 66 65 65 65 63 62 63 63 62 59 56 53 54 54 53 52 50 49 48 46 45 44 41 38 38 37 36 35 35 34 33 31 30 29 28 27 27 28 28 29 29 30 30 30 29
69 66 64 63 65 70 74 76 75 75 74 72 69 67 66 66 67 67 68 68 68 68 65 63 63 64 64 63 60 56 54 54 54 53 52 51 50 47 46 47 44 40 39 39 37 36 37 37 35 34 32 30 30 30 30 29 29 29 30 30 30 29 29
74 72 69 67 66 68 72 76 78 78 77 76 74 70 67 66 67 68 69 70 70 69 68 66 65 65 66 66 65 62 58 55 54 54 53 53 53 46 41 43 45 42 40 40 38 36 38 38 37 36 34 32 32 32 32 32 31 31 31 31 31 30 30
79 78 76 73 70 69 71 74 78 81 80 79 78 75 71 68 67 67 68 71 72 71 69 69 68 67 68 68 67 66 64 59 56 55 54 54 56 52 45 44 45 44 43 42 40 39 39 39 39 38 37 36 35 35 35 34 33 33 32 33 34 33 33
80 81 81 79 76 73 72 73 76 80 83 82 81 79 76 73 71 67 64 66 72 74 71 69 69 69 69 70 69 68 67 64 60 59 57 56 57 56 52 49 48 47 46 45 44 42 42 42 42 41 40 40 39 38 37 36 35 35 35 36 36 36 35
74 80 83 83 82 79 76 75 75 78 82 85 84 83 81 78 77 73 63 59 66 74 74 70 68 69 71 72 71 69 68 66 63 61 60 60 60 58 55 53 53 52 50 49 48 47 45 45 45 44 44 43 42 40 39 38 38 38 39 39 38 37 36
62 71 79 84 86 84 81 78 77 77 80 84 87 88 86 83 82 80 71 59 58 66 72 71 70 69 71 73 74 72 70 67 65 63 61 62 62 60 57 56 55 55 53 52 52 51 50 49 48 47 46 46 44 41 40 40 40 41 41 41 40 40 39
52 59 69 78 85 87 85 83 81 79 79 82 86 89 90 88 85 85 80 69 59 57 62 67 70 70 70 72 75 75 73 69 67 65 63 62 63 62 59 58 58 56 55 54 54 54 53 52 51 50 49 48 46 45 43 41 42 43 43 43 43 43 42
Wind_Direction
208 209 210 210 207 203 202 200 194 191 188 187 193 198 198 199 202 202 201 198 196 196 198 198 194 191 190 189 188 187 188 190 190 189 189 190 190 191 193 192 194 197 199 202 207 212 213 211 208 206 203 198 196 193 191 189 190 195 199 202 203 204 201
207 207 208 210 210 209 206 202 196 192 189 189 193 198 200 200 201 202 202 201 198 197 198 199 197 194 192 190 189 189 191 194 194 193 193 193 193 195 199 198 197 198 198 201 210 216 219 219 218 215 212 209 206 204 203 200 198 198 201 204 204 204 204
206 205 206 210 212 211 208 205 201 196 192 191 193 196 201 204 204 203 203 203 201 199 200 201 199 198 195 191 189 190 193 196 196 195 195 195 195 196 198 198 198 197 195 198 208 217 222 224 224 221 218 216 213 211 211 208 204 202 202 204 203 203 204
206 205 204 205 207 208 208 208 206 201 198 194 191 190 196 203 206 206 205 205 204 201 201 202 202 201 198 194 192 192 194 197 198 197 197 197 197 197 196 197 198 197 197 201 207 215 220 223 224 222 221 221 218 216 215 214 210 205 202 202 200 200 201
207 206 205 204 205 202 203 205 205 202 201 198 193 190 193 200 205 206 207 208 207 204 204 205 205 204 201 198 196 196 196 197 199 198 198 198 199 198 196 196 198 199 201 205 209 215 219 221 223 222 221 223 222 220 218 216 213 208 203 200 197 196 196
207 205 203 206 209 206 202 204 203 201 202 202 199 197 196 197 200 204 208 210 210 208 207 208 209 207 205 202 200 200 200 199 200 201 201 201 201 201 200 199 199 201 203 206 212 218 222 224 224 223 222 223 224 222 219 216 214 210 202 197 196 194 191
206 202 201 205 211 213 212 212 208 203 202 204 204 204 202 199 197 199 204 208 211 211 210 210 211 210 209 208 206 205 204 204 203 203 203 203 203 204 206 205 203 204 205 207 212 219 223 227 228 226 224 224 225 223 220 216 211 205 199 197 197 194 190
204 200 200 203 207 212 215 217 214 207 204 206 207 207 205 202 199 197 199 204 209 212 213 213 213 212 212 212 210 209 208 209 208 206 205 205 205 207 210 210 209 210 208 208 211 216 221 226 228 228 227 226 226 224 220 214 206 200 197 197 198 196 191
203 202 201 203 208 212 215 218 218 215 211 209 209 209 207 204 199 196 196 199 203 207 211 214 215 214 214 213 213 212 212 213 213 211 208 206 207 209 211 213 214 213 212 212 213 215 219 223 223 225 227 227 225 223 218 209 201 198 198 197 196 196 193
205 204 204 206 210 214 216 218 220 221 220 217 214 212 211 206 200 196 196 196 198 202 207 212 215 216 215 215 215 215 214 215 216 216 213 210 210 212 213 214 215 215 215 215 215 215 218 221 220 220 222 224 222 218 213 206 201 199 199 198 196 194 193
206 207 208 209 212 213 216 218 219 221 223 223 221 218 216 212 206 200 197 195 196 201 205 209 212 215 216 215 216 216 216 216 217 218 217 214 214 215 217 217 216 215 216 216 215 215 217 219 219 218 218 219 218 215 211 207 203 202 201 200 199 196 193
207 209 211 212 212 213 214 216 218 219 220 222 224 221 218 218 215 208 203 198 197 201 204 206 209 212 214 215 216 217 217 217 217 217 218 217 217 218 220 220 219 218 217 217 215 214 214 216 218 218 217 217 216 214 210 208 206 205 205 204 203 201 198
213 212 213 213 213 213 214 214 215 218 218 221 225 223 221 221 220 217 212 206 203 203 204 206 208 210 212 214 215 216 217 217 217 217 217 218 219 219 220 222 222 221 219 218 216 215 213 213 215 217 217 217 216 214 211 210 208 208 208 208 207 206 204
222 218 214 214 215 214 214 212 213 216 218 220 223 224 223 223 223 221 219 216 213 211 209 208 208 209 211 213 214 215 216 217 217 217 217 219 220 221 222 223 224 224 223 221 218 216 213 211 212 215 217 217 216 215 214 211 210 210 210 210 210 210 209
224 221 215 213 215 216 215 212 212 215 219 222 224 224 223 223 224 223 221 220 221 220 217 215 212 211 212 213 214 215 215 216 217 217 218 218 220 222 223 224 225 226 226 225 222 219 216 213 212 214 216 217 216 216 215 213 211 212 212 212 213 213 214
224 222 218 214 214 215 216 213 212 215 220 224 227 227 226 225 225 225 222 221 222 224 224 223 220 218 217 216 215 216 217 217 217 218 218 219 219 221 223 224 226 226 227 227 226 223 220 217 215 214 216 217 216 216 215 213 213 213 214 214 215 215 216
225 224 222 218 216 215 216 216 216 217 220 224 227 229 230 229 228 228 226 223 222 224 225 226 225 223 223 221 220 220 219 219 219 219 220 220 220 220 222 224 225 226 227 228 228 227 225 222 218 216 217 218 218 217 215 213 214 216 216 216 216 216 217
227 226 225 223 221 218 216 217 218 219 219 223 226 230 232 233 232 233 231 227 223 224 225 227 226 225 225 226 226 225 224 222 221 220 221 221 221 221 222 223 225 226 227 227 228 229 228 226 222 220 220 221 220 218 216 214 216 218 219 218 218 218 218
229 228 227 227 225 223 220 218 219 219 220 222 225 229 232 234 235 235 235 231 226 224 225 226 226 225 225 226 227 228 228 227 225 223 222 222 223 223 223 224 225 226 227 227 228 229 230 228 226 224 223 224 223 221 218 217 218 220 221 221 221 221 221
230 229 228 228 228 227 225 222 220 220 221 223 225 227 230 233 234 235 235 234 230 227 227 227 227 226 225 225 226 227 228 229 229 227 225 224 224 224 225 226 226 227 228 229 229 230 231 231 230 228 227 227 226 224 222 221 221 223 223 223 224 225 225
231 229 228 228 228 229 229 227 225 224 224 224 225 226 229 232 234 234 234 234 232 229 228 229 228 227 226 225 226 226 226 227 228 228 227 226 225 225 226 226 227 227 228 230 230 231 232 232 233 232 231 231 230 229 228 226 225 226 226 226 227 227 227
229 229 228 227 227 229 231 231 229 228 228 228 227 226 228 230 232 233 233 233 233 231 230 230 230 229 228 227 227 227 227 227 227 227 228 227 227 227 227 227 227 227 228 229 230 230 231 232 232 233 233 233 233 233 232 231 231 231 230 229 229 230 231
227 226 226 226 226 228 230 232 232 230 229 229 228 228 228 229 230 232 233 233 234 233 232 231 231 230 229 228 228 228 228 228 228 228 228 229 229 229 229 228 228 228 229 229 230 230 230 230 230 231 231 232 233 234 235 236 236 236 234 233 233 234 234
226 223 223 225 226 227 229 231 232 231 229 229 228 228 229 229 229 230 232 234 235 236 234 232 231 230 229 227 227 227 227 228 228 229 229 230 230 229 229 230 229 229 230 230 230 230 231 232 232 232 232 231 231 233 235 238 240 241 240 239 238 238 237
226 223 221 222 225 227 228 230 231 231 229 229 229 228 228 229 229 229 231 233 235 237 237 234 231 228 226 224 223 223 224 224 225 226 228 228 229 228 228 228 229 230 230 230 230 230 231 233 235 236 236 235 234 233 235 238 242 244 245 244 243 241 239
228 224 221 221 222 225 228 230 231 231 230 229 229 228 228 229 230 230 231 233 235 236 238 237 234 230 227 224 224 224 224 224 223 223 224 225 225 226 226 227 228 229 230 231 232 232 232 233 234 236 237 238 237 236 237 239 243 246 248 249 248 246 244
232 227 223 221 221 223 226 229 231 232 231 229 228 229 229 229 231 231 232 233 235 237 238 238 238 236 231 226 225 225 225 226 226 224 223 223 222 222 223 224 225 227 229 231 231 231 233 234 234 234 237 237 236 236 238 241 244 247 250 252 253 253 251
237 232 226 222 221 221 223 226 230 233 233 231 229 229 230 231 232 232 234 235 236 237 239 238 238 238 235 229 225 223 223 224 224 223 222 222 222 221 220 221 222 224 226 228 228 230 232 233 233 232 234 235 234 235 238 242 244 247 250 253 255 256 256
241 238 233 226 222 221 221 223 226 230 233 233 231 229 229 231 232 233 235 236 237 238 238 238 236 237 237 234 228 224 223 222 222 222 222 223 223 222 220 220 220 221 223 224 226 229 231 231 231 231 232 234 235 238 242 245 247 249 251 253 254 256 256
243 242 239 233 226 223 221 222 223 226 230 233 234 232 229 229 231 233 234 237 238 238 237 237 236 235 236 237 234 228 225 224 223 221 222 224 225 224 222 220 220 220 222 223 225 226 229 231 232 232 234 237 240 243 244 246 247 248 249 250 251 253 254
245 243 242 239 233 227 222 221 222 224 227 230 233 234 233 231 230 231 233 235 238 238 237 236 235 234 234 236 237 234 230 228 226 223 222 222 224 225 225 223 221 220 222 224 225 225 227 231 234 235 236 239 242 243 243 243 244 245 247 248 249 250 251
245 244 243 242 240 234 227 222 221 223 225 227 230 232 235 235 232 232 232 234 236 238 237 234 233 233 233 234 236 236 234 232 230 228 226 223 222 225 228 226 223 223 225 227 227 226 228 232 236 238 238 239 241 242 242 241 243 245 247 248 249 251 252
245 244 243 242 242 240 234 227 223 222 224 225 227 229 233 236 237 236 235 235 236 238 238 236 233 233 233 233 234 235 236 235 233 232 232 228 224 226 229 226 223 226 229 230 230 229 230 234 238 240 240 239 239 240 241 240 241 243 246 249 251 252 254
243 243 243 241 241 241 239 233 227 223 223 225 226 227 229 233 236 239 240 238 236 236 238 237 235 234 233 233 233 234 234 235 235 234 235 233 229 228 229 227 226 229 232 233 233 232 231 233 237 239 239 237 236 238 240 241 242 244 246 248 250 251 254
242 241 242 241 240 239 240 238 233 227 225 225 226 226 227 229 232 236 240 241 238 236 237 238 237 235 234 233 233 233 233 234 235 235 236 236 234 231 230 230 230 231 233 235 236 235 234 233 235 237 239 237 236 237 239 242 244 245 246 248 250 253 256
243 241 240 240 239 238 238 239 237 233 228 226 226 226 227 228 230 233 236 240 240 238 237 238 239 236 234 233 233 232 231 232 234 235 235 235 235 233 232 231 232 232 233 236 238 238 237 236 235 237 239 239 238 238 239 241 242 244 247 249 252 255 258
248 243 240 239 238 238 237 237 238 237 233 228 227 227 227 227 229 231 232 233 237 237 237 239 241 238 234 232 231 231 231 230 231 232 233 234 234 233 232 231 232 233 234 235 238 240 240 239 237 237 240 241 239 238 238 240 242 244 246 249 250 253 255
251 248 243 240 237 236 236 236 236 237 237 233 229 228 229 229 228 229 230 230 232 234 235 238 241 240 235 231 229 230 230 229 229 230 232 233 233 233 232 232 233 234 235 236 238 240 242 242 241 240 240 241 241 239 237 238 241 244 246 248 249 251 252
Height
5904 5904 5905 5906 5907 5908 5909 5911 5913 5915 5917 5919 5920 5921 5923 5924 5926 5928 5930 5931 5932 5934 5935 5937 5938 5940 5941 5942 5944 5946 5947 5948 5949 5950 5951 5952 5953 5954 5955 5956 5957 5958 5959 5960 5961 5962 5963 5963 5963 5963 5963 5963 5964 5964 5965 5965 5965 5966 5966 5966 5967 5967 5968
5902 5903 5904 5906 5907 5909 5910 5910 5911 5913 5915 5916 5918 5919 5921 5922 5924 5926 5928 5929 5931 5933 5934 5936 5937 5938 5939 5941 5943 5944 5946 5947 5948 5949 5951 5951 5953 5954 5955 5956 5957 5958 5959 5960 5961 5961 5962 5962 5963 5963 5963 5963 5963 5964 5964 5965 5965 5965 5966 5966 5967 5967 5967
5901 5902 5903 5905 5907 5908 5909 5910 5911 5912 5913 5914 5916 5918 5919 5921 5922 5924 5926 5927 5929 5931 5933 5934 5936 5937 5938 5940 5941 5943 5944 5946 5947 5948 5949 5950 5951 5952 5954 5955 5956 5957 5958 5959 5960 5960 5961 5962 5962 5962 5963 5963 5963 5963 5964 5965 5965 5965 5966 5966 5966 5967 5967
5899 5900 5901 5903 5905 5907 5908 5909 5911 5912 5912 5912 5914 5915 5917 5918 5920 5922 5924 5925 5927 5930 5931 5933 5934 5936 5937 5939 5940 5942 5943 5944 5946 5947 5948 5949 5950 5951 5952 5954 5955 5956 5957 5958 5959 5959 5960 5961 5961 5962 5962 5962 5963 5963 5963 5964 5965 5965 5965 5966 5966 5967 5967
5898 5899 5900 5901 5902 5904 5906 5907 5909 5910 5910 5911 5911 5912 5914 5915 5917 5919 5922 5923 5926 5928 5929 5930 5932 5934 5936 5938 5939 5940 5941 5943 5944 5945 5946 5948 5949 5950 5951 5953 5954 5955 5956 5957 5958 5958 5959 5959 5960 5960 5961 5962 5962 5963 5963 5963 5964 5965 5965 5966 5966 5966 5967
5896 5898 5899 5900 5900 5901 5903 5905 5905 5906 5907 5908 5909 5910 5911 5913 5915 5917 5919 5921 5924 5925 5927 5929 5931 5933 5935 5936 5938 5939 5940 5941 5943 5944 5945 5946 5948 5949 5950 5951 5952 5954 5955 5956 5957 5957 5958 5959 5959 5959 5960 5961 5961 5962 5963 5963 5964 5965 5965 5966 5966 5966 5967
5895 5896 5898 5899 5899 5900 5901 5902 5903 5904 5905 5906 5907 5908 5909 5911 5912 5914 5916 5919 5921 5923 5926 5928 5929 5931 5933 5935 5936 5937 5939 5940 5941 5942 5943 5945 5946 5947 5948 5950 5951 5952 5953 5955 5955 5956 5957 5957 5958 5959 5959 5960 5960 5961 5962 5963 5964 5964 5965 5966 5966 5967 5967
5893 5895 5896 5897 5898 5898 5899 5900 5901 5903 5904 5904 5905 5906 5908 5909 5911 5912 5914 5916 5918 5921 5924 5926 5928 5929 5931 5932 5934 5935 5937 5938 5939 5940 5941 5943 5944 5945 5947 5948 5949 5950 5952 5953 5954 5955 5956 5956 5957 5958 5958 5959 5960 5961 5962 5962 5963 5964 5965 5966 5967 5967 5967
5891 5893 5894 5895 5896 5897 5898 5898 5900 5901 5903 5903 5904 5904 5905 5907 5909 5910 5912 5913 5915 5918 5921 5923 5925 5927 5928 5930 5932 5933 5934 5936 5937 5939 5940 5942 5943 5944 5945 5946 5947 5948 5950 5951 5953 5954 5954 5955 5956 5957 5957 5958 5959 5960 5961 5962 5963 5964 5965 5966 5966 5967 5968
5888 5890 5892 5893 5894 5895 5896 5897 5898 5900 5902 5902 5903 5904 5904 5905 5906 5906 5908 5910 5912 5915 5917 5919 5921 5924 5926 5928 5929 5931 5932 5934 5936 5937 5939 5940 5941 5942 5943 5944 5945 5946 5948 5949 5951 5952 5953 5954 5955 5956 5956 5957 5958 5959 5960 5961 5962 5963 5964 5965 5966 5967 5968
5885 5887 5889 5891 5892 5893 5894 5895 5897 5898 5900 5901 5902 5903 5904 5904 5904 5904 5905 5907 5909 5911 5912 5915 5918 5920 5923 5925 5926 5928 5930 5932 5933 5935 5937 5939 5940 5940 5941 5942 5943 5944 5946 5947 5949 5950 5951 5952 5953 5954 5955 5956 5957 5958 5959 5961 5962 5962 5963 5964 5965 5966 5967
5881 5883 5886 5887 5889 5891 5892 5893 5894 5896 5897 5898 5899 5901 5903 5904 5904 5904 5904 5904 5905 5906 5908 5911 5913 5916 5919 5921 5923 5925 5927 5929 5931 5933 5935 5936 5937 5938 5938 5939 5941 5942 5943 5945 5947 5948 5949 5951 5952 5953 5954 5954 5956 5957 5958 5960 5961 5962 5963 5963 5964 5965 5966
5877 5880 5882 5884 5886 5888 5889 5891 5892 5893 5895 5896 5897 5898 5901 5903 5904 5904 5904 5904 5903 5904 5905 5907 5909 5911 5914 5917 5919 5922 5924 5926 5928 5930 5932 5933 5934 5935 5936 5937 5938 5940 5941 5942 5944 5946 5948 5949 5950 5951 5952 5953 5954 5956 5957 5959 5960 5961 5962 5963 5964 5964 5965
5873 5876 5878 5880 5882 5884 5886 5888 5890 5891 5892 5894 5895 5896 5898 5900 5901 5902 5903 5904 5903 5903 5903 5904 5906 5908 5910 5912 5915 5918 5920 5923 5925 5926 5928 5929 5930 5932 5933 5935 5936 5938 5939 5940 5942 5944 5945 5947 5948 5948 5950 5951 5953 5954 5956 5958 5959 5960 5961 5962 5963 5964 5964
5868 5871 5873 5875 5878 5880 5882 5885 5887 5888 5890 5891 5893 5894 5895 5897 5898 5900 5901 5902 5903 5903 5904 5904 5905 5906 5907 5909 5911 5914 5916 5918 5920 5922 5924 5926 5927 5929 5931 5932 5934 5935 5937 5939 5940 5942 5943 5944 5945 5946 5947 5949 5951 5952 5954 5956 5958 5959 5960 5961 5962 5962 5963
5862 5865 5868 5871 5873 5875 5878 5880 5883 5885 5887 5888 5890 5891 5893 5894 5895 5896 5898 5900 5901 5902 5903 5904 5905 5906 5907 5908 5910 5911 5912 5914 5916 5918 5920 5922 5925 5926 5928 5929 5931 5933 5935 5937 5938 5940 5941 5942 5943 5944 5946 5947 5948 5950 5952 5954 5956 5957 5958 5959 5960 5960 5961
5856 5859 5862 5865 5868 5870 5873 5876 5878 5881 5883 5885 5886 5888 5890 5892 5893 5894 5895 5897 5898 5899 5900 5901 5903 5905 5907 5908 5909 5909 5909 5911 5913 5915 5917 5919 5921 5923 5925 5926 5928 5930 5932 5934 5936 5938 5939 5940 5941 5943 5943 5945 5946 5948 5950 5952 5953 5954 5955 5956 5957 5958 5960
5850 5853 5856 5859 5862 5865 5867 5870 5873 5875 5878 5880 5882 5884 5886 5888 5890 5892 5893 5894 5895 5896 5897 5899 5901 5902 5904 5906 5907 5907 5908 5909 5910 5912 5914 5916 5918 5920 5922 5923 5925 5927 5929 5931 5933 5935 5937 5938 5940 5941 5942 5943 5944 5945 5947 5949 5950 5951 5952 5953 5955 5956 5957
5844 5847 5850 5853 5856 5859 5862 5864 5867 5870 5872 5875 5877 5880 5882 5884 5886 5888 5890 5891 5892 5893 5894 5896 5897 5899 5900 5901 5903 5904 5906 5907 5908 5910 5911 5913 5915 5916 5918 5920 5922 5924 5926 5928 5930 5932 5934 5936 5938 5939 5940 5941 5942 5944 5945 5946 5946 5947 5949 5950 5952 5953 5954
5838 5841 5844 5846 5849 5852 5855 5859 5862 5864 5867 5869 5872 5875 5877 5880 5882 5884 5886 5888 5889 5890 5891 5892 5894 5895 5896 5897 5898 5900 5902 5904 5906 5907 5909 5910 5911 5913 5915 5917 5920 5922 5924 5925 5927 5929 5932 5934 5936 5937 5939 5940 5941 5942 5943 5943 5944 5945 5946 5947 5948 5950 5951
5832 5835 5838 5840 5843 5846 5849 5852 5855 5858 5861 5863 5866 5869 5872 5875 5877 5879 5881 5883 5885 5886 5887 5889 5890 5891 5892 5893 5893 5895 5897 5899 5902 5904 5905 5907 5908 5910 5912 5914 5916 5919 5921 5922 5924 5927 5929 5931 5933 5936 5938 5939 5940 5941 5942 5942 5942 5942 5943 5944 5945 5946 5947
5826 5828 5831 5834 5837 5839 5842 5845 5848 5851 5854 5857 5860 5863 5866 5870 5872 5874 5876 5878 5880 5882 5883 5885 5886 5887 5888 5889 5890 5891 5892 5894 5897 5899 5901 5903 5904 5906 5909 5911 5913 5915 5917 5918 5921 5923 5925 5927 5930 5933 5935 5937 5939 5940 5941 5941 5940 5940 5941 5942 5942 5943 5944
5820 5822 5825 5828 5831 5833 5836 5838 5841 5845 5848 5851 5854 5857 5860 5863 5866 5868 5870 5873 5874 5876 5878 5880 5881 5883 5885 5886 5887 5888 5889 5891 5893 5895 5897 5899 5901 5904 5906 5908 5910 5911 5913 5915 5917 5919 5921 5923 5924 5927 5929 5932 5935 5938 5940 5940 5939 5939 5939 5939 5940 5940 5942
5813 5816 5818 5821 5824 5827 5829 5832 5835 5838 5842 5844 5847 5851 5854 5857 5860 5863 5865 5867 5869 5871 5873 5874 5876 5878 5880 5882 5883 5884 5886 5887 5889 5891 5894 5896 5899 5901 5903 5905 5907 5908 5910 5912 5914 5916 5918 5919 5921 5922 5925 5927 5930 5933 5935 5936 5937 5937 5938 5938 5938 5939 5940
5806 5809 5812 5815 5818 5820 5823 5826 5829 5832 5835 5838 5841 5844 5847 5851 5854 5857 5859 5861 5863 5865 5866 5867 5868 5870 5873 5875 5876 5877 5879 5882 5884 5887 5890 5893 5895 5897 5899 5901 5903 5905 5907 5909 5910 5912 5914 5916 5918 5920 5922 5924 5925 5927 5929 5931 5932 5934 5935 5936 5936 5937 5939
5799 5802 5805 5808 5811 5813 5816 5819 5822 5825 5829 5832 5835 5837 5841 5844 5847 5850 5853 5855 5857 5858 5858 5859 5862 5866 5870 5873 5875 5876 5878 5879 5881 5883 5886 5888 5891 5893 5895 5897 5899 5901 5903 5905 5907 5909 5910 5912 5914 5916 5919 5921 5922 5923 5925 5926 5928 5929 5931 5932 5933 5935 5936
5791 5794 5797 5800 5803 5806 5809 5812 5815 5818 5822 5825 5828 5831 5834 5837 5840 5844 5846 5849 5851 5851 5852 5855 5859 5863 5868 5871 5873 5875 5877 5878 5879 5881 5883 5884 5886 5888 5890 5893 5895 5897 5899 5901 5904 5906 5907 5908 5910 5912 5915 5917 5918 5919 5921 5922 5923 5924 5926 5928 5929 5931 5933
5783 5787 5790 5792 5795 5798 5802 5805 5808 5811 5814 5818 5821 5824 5827 5830 5834 5837 5840 5843 5844 5845 5848 5852 5856 5858 5862 5865 5867 5870 5872 5873 5874 5877 5879 5880 5882 5884 5886 5888 5890 5892 5895 5897 5900 5902 5903 5905 5906 5909 5911 5913 5914 5916 5917 5918 5919 5920 5922 5923 5925 5927 5929
5776 5779 5782 5785 5787 5790 5794 5797 5800 5803 5807 5810 5813 5816 5820 5823 5827 5830 5834 5836 5837 5840 5843 5848 5851 5853 5856 5859 5862 5864 5865 5866 5868 5872 5875 5877 5880 5881 5883 5884 5886 5888 5890 5893 5896 5898 5900 5901 5903 5905 5907 5908 5910 5912 5913 5914 5915 5916 5918 5919 5921 5922 5924
5768 5771 5774 5777 5780 5782 5786 5789 5792 5795 5799 5802 5806 5809 5812 5816 5819 5823 5826 5829 5830 5833 5838 5842 5845 5848 5851 5853 5856 5858 5859 5861 5864 5868 5871 5874 5876 5878 5880 5880 5882 5884 5886 5889 5892 5894 5896 5898 5900 5902 5903 5905 5906 5908 5909 5910 5911 5912 5914 5915 5917 5918 5919
5760 5763 5765 5768 5771 5774 5778 5781 5784 5788 5791 5794 5798 5801 5804 5807 5811 5815 5819 5821 5823 5826 5831 5836 5839 5842 5846 5848 5850 5852 5854 5857 5860 5863 5866 5868 5870 5874 5877 5877 5878 5879 5882 5885 5888 5891 5893 5895 5896 5898 5900 5901 5902 5904 5905 5906 5907 5909 5910 5912 5913 5914 5915
5751 5754 5757 5760 5763 5765 5769 5773 5776 5780 5783 5786 5789 5794 5797 5799 5803 5807 5811 5814 5815 5818 5822 5828 5833 5836 5839 5843 5845 5847 5849 5852 5855 5858 5861 5862 5865 5869 5873 5875 5875 5876 5878 5881 5884 5887 5890 5892 5893 5895 5896 5898 5899 5901 5902 5903 5904 5905 5906 5907 5908 5909 5910
5741 5744 5748 5751 5754 5756 5760 5764 5768 5772 5775 5777 5781 5785 5789 5792 5795 5799 5802 5805 5808 5811 5815 5820 5825 5829 5832 5836 5839 5842 5843 5846 5849 5853 5856 5858 5860 5864 5868 5871 5872 5872 5874 5877 5880 5884 5886 5888 5890 5891 5893 5894 5895 5896 5897 5899 5900 5902 5903 5904 5904 5905 5905
5731 5734 5737 5742 5745 5747 5750 5755 5760 5763 5766 5769 5772 5776 5781 5784 5788 5791 5794 5797 5801 5804 5807 5812 5818 5822 5825 5828 5832 5835 5838 5840 5843 5847 5850 5853 5855 5858 5862 5865 5866 5868 5870 5873 5876 5879 5881 5883 5885 5887 5889 5890 5890 5891 5893 5895 5897 5898 5899 5899 5899 5899 5900
5719 5723 5727 5731 5735 5738 5741 5745 5750 5754 5758 5761 5764 5767 5772 5776 5780 5783 5786 5789 5792 5796 5799 5804 5809 5814 5817 5820 5824 5828 5831 5833 5836 5840 5843 5847 5850 5853 5856 5858 5860 5862 5865 5868 5870 5873 5876 5878 5880 5882 5884 5884 5885 5887 5889 5891 5893 5894 5894 5894 5895 5895 5896
5707 5711 5715 5719 5723 5728 5733 5736 5740 5744 5749 5753 5755 5759 5762 5766 5771 5776 5779 5782 5784 5788 5792 5796 5801 5805 5809 5812 5816 5820 5823 5826 5829 5832 5836 5840 5843 5847 5850 5852 5854 5856 5860 5863 5865 5867 5869 5872 5875 5877 5878 5879 5881 5883 5885 5887 5888 5888 5889 5890 5891 5892 5893
5697 5700 5704 5707 5711 5717 5723 5727 5730 5734 5739 5743 5747 5750 5754 5757 5762 5766 5771 5775 5777 5780 5784 5788 5792 5796 5800 5804 5808 5812 5815 5819 5821 5825 5829 5833 5836 5840 5844 5846 5848 5850 5853 5856 5858 5861 5863 5866 5869 5871 5873 5875 5877 5879 5880 5882 5883 5883 5884 5885 5886 5888 5889
5688 5691 5693 5695 5699 5706 5712 5717 5720 5723 5728 5733 5737 5741 5745 5749 5752 5757 5762 5767 5770 5773 5777 5780 5783 5787 5791 5796 5800 5804 5807 5811 5814 5818 5822 5825 5829 5833 5837 5840 5842 5844 5847 5850 5852 5855 5858 5860 5863 5865 5867 5870 5872 5874 5875 5876 5877 5878 5879 5880 5881 5882 5884